Total_Precipitation_Accumulation
0.00 0.00 0.01 0.01 0.01 0.02 0.04 0.09 0.16 0.18 0.18 0.24 0.41 0.66 0.78 0.78 0.84 0.99 1.11 1.30 1.34 1.39 1.65 2.12 2.77 3.43 4.23 5.33 5.98 6.08 5.75 5.03 4.47 4.01 3.73 3.42 3.13 2.84 2.38 1.97 1.72 1.58 1.50 1.41
0.01 0.02 0.02 0.02 0.02 0.03 0.05 0.09 0.17 0.17 0.14 0.16 0.38 0.72 0.82 0.88 0.95 0.95 1.01 1.10 1.02 1.17 1.52 2.12 2.91 3.72 4.38 4.92 5.26 5.30 4.88 4.11 3.61 3.28 3.18 2.89 2.65 2.30 2.08 1.81 1.72 1.49 1.41 1.36
0.02 0.03 0.02 0.01 0.02 0.04 0.08 0.09 0.15 0.18 0.15 0.17 0.38 0.86 1.03 0.98 0.97 0.97 0.87 0.86 0.94 1.14 1.70 2.47 3.30 4.06 4.39 4.40 4.16 3.85 3.63 3.22 3.07 2.98 2.77 2.52 2.43 2.14 1.94 1.70 1.56 1.33 1.19 1.11
0.02 0.03 0.02 0.03 0.04 0.06 0.09 0.07 0.05 0.07 0.13 0.34 0.47 0.94 1.09 1.11 1.07 0.95 0.91 0.93 1.04 1.30 1.85 2.57 3.12 3.36 3.51 3.43 3.13 2.91 2.80 2.70 2.62 2.52 2.37 2.05 1.83 1.77 1.63 1.52 1.46 1.35 1.21 1.14
0.02 0.03 0.04 0.04 0.04 0.05 0.06 0.04 0.04 0.08 0.19 0.35 0.49 0.79 1.14 1.13 1.20 0.81 0.69 0.80 0.89 1.11 1.41 1.65 1.87 2.02 2.15 2.18 2.32 2.35 2.41 2.51 2.41 2.35 2.29 2.15 1.87 1.80 1.77 1.73 1.74 1.62 1.44 1.26
0.03 0.03 0.03 0.03 0.03 0.04 0.04 0.06 0.13 0.22 0.37 0.71 0.70 0.83 1.17 1.16 1.00 0.62 0.44 0.49 0.69 0.81 0.87 0.98 1.08 1.20 1.43 1.48 1.67 1.83 1.89 2.03 2.16 2.16 2.02 1.97 1.89 1.90 1.89 1.80 1.63 1.43 1.32 1.23
0.09 0.07 0.06 0.06 0.06 0.06 0.05 0.09 0.31 0.64 0.99 1.05 0.62 0.73 1.12 1.04 0.72 0.46 0.37 0.33 0.38 0.54 0.69 0.84 0.97 1.08 1.27 1.20 1.25 1.43 1.49 1.52 1.65 1.66 1.62 1.68 1.80 1.84 1.69 1.56 1.47 1.33 1.11 1.08
0.15 0.14 0.09 0.07 0.08 0.07 0.06 0.07 0.18 0.35 0.46 0.62 0.65 1.13 1.36 0.80 0.50 0.35 0.31 0.27 0.28 0.43 0.60 0.71 0.71 0.78 0.90 0.86 0.94 1.06 1.19 1.26 1.31 1.37 1.43 1.42 1.54 1.54 1.47 1.52 1.43 1.29 1.07 0.99
0.06 0.08 0.08 0.07 0.08 0.08 0.06 0.05 0.07 0.10 0.17 0.44 0.81 1.16 1.13 0.68 0.51 0.34 0.29 0.26 0.27 0.33 0.48 0.53 0.46 0.47 0.60 0.70 0.76 0.81 0.99 1.11 1.12 1.23 1.30 1.25 1.32 1.40 1.46 1.48 1.38 1.21 1.19 1.08
0.04 0.03 0.05 0.05 0.07 0.08 0.07 0.07 0.08 0.10 0.19 0.40 0.73 1.17 1.38 1.00 0.57 0.39 0.38 0.37 0.35 0.32 0.37 0.39 0.37 0.35 0.43 0.56 0.72 0.81 0.92 1.03 1.05 1.14 1.13 0.99 1.15 1.27 1.41 1.39 1.31 1.27 1.29 1.21
0.03 0.03 0.05 0.06 0.07 0.09 0.09 0.09 0.10 0.11 0.12 0.23 0.56 0.84 0.73 0.72 0.55 0.53 0.50 0.44 0.40 0.35 0.37 0.36 0.32 0.30 0.32 0.42 0.61 0.74 0.86 0.95 0.98 1.05 1.13 1.17 1.17 1.10 1.21 1.26 1.26 1.31 1.35 1.27
0.03 0.03 0.05 0.08 0.10 0.11 0.11 0.11 0.12 0.14 0.12 0.13 0.27 0.44 0.44 0.62 0.61 0.59 0.58 0.53 0.49 0.36 0.32 0.33 0.33 0.35 0.35 0.37 0.48 0.60 0.72 0.84 0.91 1.00 1.13 1.18 1.26 1.18 1.15 1.19 1.26 1.32 1.42 1.46
0.03 0.04 0.06 0.15 0.22 0.18 0.12 0.11 0.12 0.12 0.10 0.11 0.27 0.44 0.43 0.49 0.55 0.50 0.60 0.58 0.48 0.44 0.41 0.38 0.39 0.43 0.46 0.45 0.46 0.55 0.69 0.83 0.95 1.05 1.11 1.20 1.26 1.20 1.18 1.32 1.43 1.46 1.58 1.70
0.04 0.04 0.06 0.15 0.25 0.28 0.20 0.13 0.12 0.10 0.08 0.09 0.17 0.38 0.44 0.49 0.47 0.55 0.63 0.63 0.58 0.53 0.45 0.37 0.35 0.37 0.42 0.54 0.59 0.68 0.91 0.90 0.88 1.03 1.16 1.24 1.30 1.30 1.31 1.40 1.49 1.51 1.60 1.74
0.04 0.04 0.04 0.05 0.09 0.15 0.19 0.17 0.13 0.09 0.07 0.09 0.16 0.32 0.41 0.52 0.57 0.59 0.61 0.57 0.51 0.46 0.42 0.35 0.33 0.35 0.43 0.57 0.60 0.68 0.82 1.00 1.03 1.19 1.35 1.40 1.51 1.57 1.60 1.68 1.69 1.65 1.66 1.70
0.07 0.06 0.04 0.04 0.07 0.11 0.13 0.16 0.11 0.09 0.07 0.07 0.16 0.35 0.43 0.45 0.51 0.59 0.59 0.58 0.55 0.47 0.43 0.45 0.47 0.47 0.50 0.56 0.63 0.71 0.76 0.94 1.13 1.36 1.64 1.68 1.77 1.82 1.91 2.06 2.14 2.07 2.03 2.11
0.13 0.10 0.08 0.07 0.10 0.11 0.15 0.15 0.12 0.14 0.13 0.14 0.22 0.33 0.38 0.44 0.53 0.73 0.75 0.69 0.69 0.62 0.59 0.61 0.69 0.67 0.66 0.66 0.70 0.78 0.85 0.99 1.22 1.47 1.71 1.91 2.03 2.11 2.19 2.29 2.30 2.25 2.35 2.50
0.20 0.19 0.16 0.12 0.16 0.22 0.19 0.19 0.17 0.19 0.22 0.27 0.35 0.37 0.48 0.67 0.79 0.94 0.98 0.86 0.83 0.74 0.67 0.70 0.81 0.88 0.84 0.83 0.91 1.03 1.17 1.32 1.53 1.73 1.90 2.05 2.09 2.13 2.19 2.26 2.20 2.24 2.37 2.44
0.21 0.25 0.26 0.23 0.25 0.25 0.26 0.30 0.30 0.34 0.47 0.48 0.56 0.63 0.71 0.79 0.80 0.87 0.83 0.73 0.69 0.66 0.73 0.78 0.88 0.98 1.05 1.06 1.16 1.24 1.30 1.40 1.60 1.77 1.86 1.88 1.99 2.10 2.16 2.20 2.24 2.26 2.24 2.13
0.31 0.31 0.40 0.36 0.38 0.40 0.43 0.46 0.42 0.49 0.90 0.93 0.88 0.84 0.80 0.84 1.03 1.01 0.81 0.73 0.71 0.69 0.72 0.84 0.86 0.93 1.03 1.11 1.14 1.21 1.31 1.46 1.67 1.84 1.87 1.86 1.96 2.04 2.10 2.16 2.21 2.15 2.07 2.01
0.50 0.54 0.51 0.50 0.53 0.49 0.48 0.43 0.43 0.75 1.07 1.03 1.02 1.06 0.98 1.04 1.10 1.04 0.90 0.88 0.81 0.74 0.72 0.78 0.89 0.96 1.00 1.08 1.12 1.18 1.30 1.43 1.55 1.62 1.69 1.79 1.94 2.04 2.07 2.11 2.10 2.03 1.94 1.95
0.60 0.65 0.65 0.66 0.81 0.85 0.62 0.52 0.73 0.99 0.87 1.03 1.15 1.14 1.12 1.04 0.95 0.96 0.95 0.95 0.89 0.82 0.85 0.88 0.96 1.11 1.18 1.21 1.21 1.28 1.28 1.34 1.44 1.44 1.49 1.52 1.61 1.75 1.80 1.88 1.84 1.85 1.80 1.74
0.77 0.77 0.81 0.91 1.03 0.86 0.73 0.75 0.83 0.87 0.90 0.97 1.11 1.16 1.12 1.13 1.08 0.93 0.89 0.87 0.98 1.06 1.07 1.04 1.03 1.10 1.16 1.25 1.33 1.38 1.33 1.28 1.29 1.31 1.38 1.43 1.43 1.56 1.68 1.74 1.70 1.67 1.62 1.54
0.95 0.78 0.87 1.12 1.20 1.05 0.95 0.91 0.85 0.83 0.87 0.92 1.06 1.17 1.24 1.20 1.05 0.96 0.88 0.82 0.80 0.85 0.89 0.96 0.99 1.03 1.17 1.15 1.18 1.24 1.27 1.26 1.31 1.36 1.35 1.37 1.42 1.51 1.71 1.78 1.66 1.55 1.48 1.41
1.00 1.03 1.08 1.26 1.32 1.14 1.04 0.97 1.02 1.00 0.94 0.93 1.01 1.09 1.09 1.03 1.00 0.96 0.86 0.78 0.75 0.72 0.69 0.73 0.79 0.82 0.89 0.90 0.92 0.95 0.99 1.07 1.12 1.12 1.08 1.05 1.12 1.26 1.45 1.55 1.52 1.38 1.33 1.37
0.92 1.10 1.25 1.37 1.24 1.27 1.28 1.16 1.14 1.21 1.23 1.18 1.14 1.13 1.05 0.94 0.88 0.82 0.71 0.64 0.63 0.60 0.58 0.62 0.65 0.66 0.69 0.75 0.83 0.91 1.05 1.16 1.14 1.05 0.99 0.98 0.99 1.09 1.27 1.47 1.55 1.42 1.21 1.23